Weather History for Salisbury, MD

Change the Weather History Date:

Saturday, August 31, 2013

  Actual Average Record
Temperature  
Mean Temperature 80 °F 73 °F  
Max Temperature 89 °F 83 °F 98 °F (1932)
Min Temperature 70 °F 63 °F 46 °F (1976)
Degree Days  
Heating Degree Days 0 0  
Month to date heating degree days 0 0  
Since 1 June heating degree days 0 21  
Since 1 July heating degree days 0 2  
Cooling Degree Days 15 8  
Month to date cooling degree days 333 308  
Year to date cooling degree days 1363 983  
Since 1 June cooling degree days 1172 899  
Growing Degree Days 29 (Base 50)    
Moisture  
Dew Point 70 °F    
Average Humidity 74    
Maximum Humidity 93    
Minimum Humidity 55    
Precipitation  
Precipitation 0.00 in 0.11 in 2.08 in (1949)
Month to date precipitation 7.30 4.43  
Year to date precipitation 39.68 31.07  
Snow  
Snow 0.00 in 0.00 in 0.00 in (2002)
Month to date snowfall 0.0 0.0  
Since 1 July snowfall 0.0 0.0  
Snow Depth 0.00 in    
Sea Level Pressure  
Sea Level Pressure 29.91 in    
Wind  
Wind Speed 9 mph (SSW)    
Max Wind Speed 20 mph    
Max Gust Speed 24 mph    
Visibility 10 miles    
Events      
T = Trace of Precipitation, MM = Missing Value Source: NWS Daily Summary

Daily Weather History Graph

Daily Weather History Graph

Search for Another Location

Airport:

Trip Planner

Search our weather history database for the weather conditions in past years. The results will help you decide how hot, cold, wet, or windy it might be!

Date:

Astronomy

Aug. 31, 2013 Rise Set
Actual Time 6:30 AM EDT 7:32 PM EDT
Civil Twilight 6:03 AM EDT 8:00 PM EDT
Nautical Twilight 5:31 AM EDT 8:32 PM EDT
Astronomical Twilight 4:57 AM EDT 9:05 PM EDT
Moon 2:00 AM EDT (8/31) 4:27 PM EDT (8/31)
Length of Visible Light 13h 56m
Length of Day
13h 02m
Waning Crescent, 21% of the Moon is Illuminated
Aug 31
Waning Crescent
Sep 5
New
Sep 12
First Quarter
Sep 19
Full
Sep 26
Last Quarter

Hourly Weather History & Observations

Time (EDT) Temp. Heat Index Dew Point Humidity Pressure Visibility Wind Dir Wind Speed Gust Speed Precip Events Conditions
12:54 AM 70.0 °F - 66.9 °F 90% 29.96 in 10.0 mi South 3.5 mph - N/A   Clear
1:54 AM 70.0 °F - 66.9 °F 90% 29.94 in 9.0 mi South 5.8 mph - N/A   Clear
2:54 AM 71.1 °F - 66.9 °F 87% 29.92 in 10.0 mi SSW 5.8 mph - N/A   Clear
3:54 AM 71.1 °F - 68.0 °F 90% 29.92 in 9.0 mi South 4.6 mph - N/A   Clear
4:54 AM 70.0 °F - 66.9 °F 90% 29.93 in 7.0 mi Calm Calm - N/A   Partly Cloudy
5:54 AM 70.0 °F - 66.9 °F 90% 29.93 in 7.0 mi South 3.5 mph - N/A   Clear
6:54 AM 72.0 °F - 69.1 °F 91% 29.93 in 7.0 mi South 5.8 mph - N/A   Clear
7:54 AM 73.9 °F - 70.0 °F 87% 29.92 in 9.0 mi South 8.1 mph - N/A   Clear
8:54 AM 78.1 °F - 72.0 °F 81% 29.93 in 10.0 mi SSW 10.4 mph - N/A   Clear
9:54 AM 82.0 °F 86.3 °F 71.1 °F 69% 29.94 in 10.0 mi SW 12.7 mph - N/A   Clear
10:54 AM 84.9 °F 90.1 °F 71.1 °F 63% 29.93 in 10.0 mi SSW 13.8 mph - N/A   Partly Cloudy
11:54 AM 87.1 °F 91.3 °F 69.1 °F 55% 29.92 in 10.0 mi SW 13.8 mph - N/A   Clear
12:54 PM 88.0 °F 92.9 °F 70.0 °F 55% 29.91 in 10.0 mi SW 11.5 mph - N/A   Clear
1:54 PM 88.0 °F 92.9 °F 70.0 °F 55% 29.91 in 10.0 mi SW 13.8 mph 21.9 mph N/A   Clear
2:54 PM 88.0 °F 93.8 °F 71.1 °F 57% 29.89 in 10.0 mi SSW 13.8 mph 20.7 mph N/A   Partly Cloudy
3:54 PM 88.0 °F 92.9 °F 70.0 °F 55% 29.87 in 10.0 mi SW 15.0 mph 20.7 mph N/A   Clear
4:54 PM 87.1 °F 91.3 °F 69.1 °F 55% 29.86 in 10.0 mi SSW 16.1 mph 24.2 mph N/A   Clear
5:54 PM 86.0 °F 90.7 °F 70.0 °F 59% 29.86 in 10.0 mi SSW 9.2 mph - N/A   Clear
6:54 PM 82.0 °F 86.7 °F 72.0 °F 71% 29.86 in 10.0 mi SSE 6.9 mph - N/A   Clear
7:54 PM 80.1 °F 83.8 °F 72.0 °F 76% 29.88 in 10.0 mi SSE 8.1 mph - N/A   Clear
8:54 PM 79.0 °F - 71.1 °F 77% 29.89 in 10.0 mi South 5.8 mph - N/A   Clear
9:54 PM 78.1 °F - 71.1 °F 79% 29.90 in 10.0 mi South 6.9 mph - N/A   Partly Cloudy
10:54 PM 78.1 °F - 72.0 °F 81% 29.89 in 10.0 mi South 5.8 mph - N/A   Clear
11:54 PM 78.1 °F - 73.0 °F 84% 29.88 in 10.0 mi South 8.1 mph - N/A   Clear